Time,TemperatureF,DewpointF,PressureIn,WindDirection,WindDirectionDegrees,WindSpeedMPH,WindSpeedGustMPH,Humidity,HourlyPrecipIn,Conditions,Clouds,dailyrainin,SoftwareType,DateUTC
2013-06-15 00:00:00,58.6,26.0,30.03,North,9,0.0,0.0,28,0.00,,---,0.00,VWS V14.00,2013-06-15 07:00:00,
2013-06-15 00:10:00,58.2,25.7,30.02,North,9,0.0,0.0,28,0.00,,---,0.00,VWS V14.00,2013-06-15 07:10:00,
2013-06-15 00:15:00,57.7,25.3,30.02,North,9,0.0,0.0,28,0.00,,---,0.00,VWS V14.00,2013-06-15 07:15:00,
2013-06-15 00:20:00,57.8,25.4,30.02,North,9,0.0,0.0,28,0.00,,---,0.00,VWS V14.00,2013-06-15 07:20:00,
2013-06-15 00:30:00,57.5,25.1,30.02,North,9,0.0,0.0,28,0.00,,---,0.00,VWS V14.00,2013-06-15 07:30:00,
2013-06-15 00:35:00,57.6,25.2,30.02,North,9,0.0,0.0,28,0.00,,---,0.00,VWS V14.00,2013-06-15 07:35:00,
2013-06-15 00:40:00,57.7,24.4,30.02,North,9,0.0,0.0,28,0.00,,---,0.00,VWS V14.00,2013-06-15 07:40:00,
2013-06-15 00:45:00,57.5,24.2,30.02,North,9,0.0,0.0,28,0.00,,---,0.00,VWS V14.00,2013-06-15 07:45:00,
2013-06-15 00:55:00,57.5,24.2,30.02,North,9,0.0,5.0,28,0.00,,---,0.00,VWS V14.00,2013-06-15 07:55:00,
2013-06-15 01:00:00,57.2,24.0,30.02,North,9,0.0,0.0,28,0.00,,---,0.00,VWS V14.00,2013-06-15 08:00:00,
2013-06-15 01:10:00,56.9,23.7,30.02,North,9,0.0,0.0,28,0.00,,---,0.00,VWS V14.00,2013-06-15 08:10:00,
2013-06-15 01:20:00,56.2,23.1,30.02,North,9,0.0,0.0,28,0.00,,---,0.00,VWS V14.00,2013-06-15 08:20:00,
2013-06-15 01:25:00,56.1,23.0,30.02,North,9,0.0,0.0,28,0.00,,---,0.00,VWS V14.00,2013-06-15 08:25:00,
2013-06-15 01:30:00,56.2,23.1,30.01,North,9,0.0,0.0,28,0.00,,---,0.00,VWS V14.00,2013-06-15 08:30:00,
2013-06-15 01:40:00,55.2,22.3,30.01,North,9,0.0,0.0,28,0.00,,---,0.00,VWS V14.00,2013-06-15 08:40:00,
2013-06-15 01:45:00,53.5,21.6,30.01,North,9,0.0,0.0,28,0.00,,---,0.00,VWS V14.00,2013-06-15 08:45:00,
2013-06-15 01:50:00,52.6,21.7,30.01,North,9,0.0,0.0,30,0.00,,---,0.00,VWS V14.00,2013-06-15 08:50:00,
2013-06-15 02:00:00,53.5,22.5,30.01,North,9,0.0,0.0,30,0.00,,---,0.00,VWS V14.00,2013-06-15 09:00:00,
2013-06-15 02:10:00,52.1,21.2,30.01,North,9,0.0,4.0,30,0.00,,---,0.00,VWS V14.00,2013-06-15 09:10:00,
2013-06-15 02:15:00,51.0,20.3,30.01,North,9,0.0,0.0,30,0.00,,---,0.00,VWS V14.00,2013-06-15 09:15:00,
2013-06-15 02:20:00,51.5,20.7,30.01,North,9,0.0,0.0,30,0.00,,---,0.00,VWS V14.00,2013-06-15 09:20:00,
2013-06-15 02:25:00,52.6,21.7,30.01,North,9,0.0,0.0,30,0.00,,---,0.00,VWS V14.00,2013-06-15 09:25:00,
2013-06-15 02:35:00,51.3,20.5,30.01,North,9,0.0,0.0,30,0.00,,---,0.00,VWS V14.00,2013-06-15 09:35:00,
2013-06-15 02:40:00,51.0,20.3,30.01,North,9,0.0,0.0,30,0.00,,---,0.00,VWS V14.00,2013-06-15 09:40:00,
2013-06-15 02:45:00,51.1,20.4,30.01,North,9,0.0,0.0,30,0.00,,---,0.00,VWS V14.00,2013-06-15 09:45:00,
2013-06-15 02:50:00,50.8,20.9,30.01,North,9,0.0,0.0,30,0.00,,---,0.00,VWS V14.00,2013-06-15 09:50:00,
2013-06-15 02:55:00,51.1,21.1,30.01,North,9,0.0,0.0,30,0.00,,---,0.00,VWS V14.00,2013-06-15 09:55:00,
2013-06-15 03:00:00,51.2,20.5,30.01,North,9,0.0,0.0,30,0.00,,---,0.00,VWS V14.00,2013-06-15 10:00:00,
2013-06-15 03:10:00,51.0,21.1,30.01,North,9,0.0,0.0,30,0.00,,---,0.00,VWS V14.00,2013-06-15 10:10:00,
2013-06-15 03:20:00,52.6,20.9,30.01,North,9,0.0,0.0,28,0.00,,---,0.00,VWS V14.00,2013-06-15 10:20:00,
2013-06-15 03:30:00,50.5,19.9,30.01,North,9,0.0,0.0,30,0.00,,---,0.00,VWS V14.00,2013-06-15 10:30:00,
2013-06-15 03:35:00,50.3,20.5,30.01,North,9,0.0,0.0,30,0.00,,---,0.00,VWS V14.00,2013-06-15 10:35:00,
2013-06-15 03:40:00,50.3,20.5,30.01,North,9,0.0,0.0,30,0.00,,---,0.00,VWS V14.00,2013-06-15 10:40:00,
2013-06-15 03:50:00,50.0,21.0,30.01,North,9,0.0,0.0,32,0.00,,---,0.00,VWS V14.00,2013-06-15 10:50:00,
2013-06-15 03:55:00,51.1,21.1,30.01,North,9,0.0,0.0,30,0.00,,---,0.00,VWS V14.00,2013-06-15 10:55:00,
2013-06-15 04:00:00,51.9,21.9,30.01,North,9,0.0,0.0,30,0.00,,---,0.00,VWS V14.00,2013-06-15 11:00:00,
2013-06-15 04:10:00,52.3,21.4,30.01,North,9,0.0,0.0,30,0.00,,---,0.00,VWS V14.00,2013-06-15 11:10:00,
2013-06-15 04:15:00,51.4,20.6,30.01,North,9,0.0,0.0,30,0.00,,---,0.00,VWS V14.00,2013-06-15 11:15:00,
2013-06-15 04:20:00,50.8,20.1,30.01,North,9,0.0,0.0,30,0.00,,---,0.00,VWS V14.00,2013-06-15 11:20:00,
2013-06-15 04:30:00,48.8,19.1,30.01,North,9,0.0,0.0,30,0.00,,---,0.00,VWS V14.00,2013-06-15 11:30:00,
2013-06-15 04:35:00,48.4,19.5,30.01,North,9,0.0,0.0,32,0.00,,---,0.00,VWS V14.00,2013-06-15 11:35:00,
2013-06-15 04:45:00,48.8,19.1,30.01,North,9,0.0,0.0,30,0.00,,---,0.00,VWS V14.00,2013-06-15 11:45:00,
2013-06-15 04:50:00,47.5,18.8,30.01,North,9,0.0,0.0,32,0.00,,---,0.00,VWS V14.00,2013-06-15 11:50:00,
2013-06-15 04:55:00,47.3,18.6,30.01,North,9,0.0,0.0,32,0.00,,---,0.00,VWS V14.00,2013-06-15 11:55:00,
2013-06-15 05:00:00,46.9,18.2,30.01,North,9,0.0,0.0,32,0.00,,---,0.00,VWS V14.00,2013-06-15 12:00:00,
2013-06-15 05:05:00,46.8,18.1,30.01,North,9,0.0,0.0,32,0.00,,---,0.00,VWS V14.00,2013-06-15 12:05:00,
2013-06-15 05:15:00,47.8,19.0,30.02,North,9,0.0,0.0,32,0.00,,---,0.00,VWS V14.00,2013-06-15 12:15:00,
2013-06-15 05:25:00,47.6,18.9,30.02,North,9,0.0,0.0,32,0.00,,---,0.00,VWS V14.00,2013-06-15 12:25:00,
2013-06-15 05:35:00,47.1,19.1,30.02,North,9,0.0,0.0,32,0.00,,---,0.00,VWS V14.00,2013-06-15 12:35:00,
2013-06-15 05:40:00,48.1,20.0,30.02,North,9,0.0,0.0,32,0.00,,---,0.00,VWS V14.00,2013-06-15 12:40:00,
2013-06-15 05:50:00,50.1,21.0,30.02,North,9,0.0,0.0,32,0.00,,---,0.00,VWS V14.00,2013-06-15 12:50:00,
2013-06-15 06:00:00,50.8,20.9,30.02,North,9,0.0,0.0,30,0.00,,---,0.00,VWS V14.00,2013-06-15 13:00:00,
2013-06-15 06:10:00,50.1,20.3,30.03,North,9,0.0,0.0,30,0.00,,---,0.00,VWS V14.00,2013-06-15 13:10:00,
2013-06-15 06:20:00,49.7,19.9,30.03,North,9,0.0,0.0,30,0.00,,---,0.00,VWS V14.00,2013-06-15 13:20:00,
2013-06-15 06:25:00,49.9,20.1,30.03,North,9,0.0,0.0,30,0.00,,---,0.00,VWS V14.00,2013-06-15 13:25:00,
2013-06-15 06:35:00,50.6,20.7,30.03,North,9,0.0,0.0,30,0.00,,---,0.00,VWS V14.00,2013-06-15 13:35:00,
2013-06-15 06:40:00,51.2,20.5,30.03,North,9,0.0,0.0,30,0.00,,---,0.00,VWS V14.00,2013-06-15 13:40:00,
2013-06-15 06:50:00,52.5,20.8,30.03,North,9,0.0,0.0,28,0.00,,---,0.00,VWS V14.00,2013-06-15 13:50:00,
2013-06-15 07:00:00,54.0,22.1,30.03,North,9,0.0,0.0,28,0.00,,---,0.00,VWS V14.00,2013-06-15 14:00:00,
2013-06-15 07:05:00,54.5,21.7,30.03,North,9,0.0,0.0,28,0.00,,---,0.00,VWS V14.00,2013-06-15 14:05:00,
2013-06-15 07:15:00,55.1,22.2,30.03,North,9,0.0,0.0,28,0.00,,---,0.00,VWS V14.00,2013-06-15 14:15:00,
2013-06-15 07:20:00,55.7,21.8,30.03,North,9,0.0,0.0,26,0.00,,---,0.00,VWS V14.00,2013-06-15 14:20:00,
2013-06-15 07:25:00,56.5,22.5,30.03,North,9,0.0,0.0,26,0.00,,---,0.00,VWS V14.00,2013-06-15 14:25:00,
2013-06-15 07:30:00,56.9,22.8,30.03,North,9,0.0,0.0,26,0.00,,---,0.00,VWS V14.00,2013-06-15 14:30:00,
2013-06-15 07:35:00,57.1,23.9,30.03,North,9,0.0,0.0,28,0.00,,---,0.00,VWS V14.00,2013-06-15 14:35:00,
2013-06-15 07:40:00,56.8,23.6,30.03,North,9,0.0,0.0,28,0.00,,---,0.00,VWS V14.00,2013-06-15 14:40:00,
2013-06-15 07:45:00,56.5,24.2,30.03,North,9,0.0,0.0,28,0.00,,---,0.00,VWS V14.00,2013-06-15 14:45:00,
2013-06-15 07:50:00,56.3,24.1,30.03,North,9,0.0,0.0,28,0.00,,---,0.00,VWS V14.00,2013-06-15 14:50:00,
2013-06-15 07:55:00,56.1,23.9,30.03,North,9,0.0,0.0,28,0.00,,---,0.00,VWS V14.00,2013-06-15 14:55:00,
2013-06-15 08:00:00,56.3,24.1,30.03,North,9,0.0,0.0,28,0.00,,---,0.00,VWS V14.00,2013-06-15 15:00:00,
2013-06-15 08:05:00,56.7,24.4,30.03,North,9,0.0,0.0,28,0.00,,---,0.00,VWS V14.00,2013-06-15 15:05:00,
2013-06-15 08:10:00,57.1,24.8,30.03,North,9,0.0,0.0,28,0.00,,---,0.00,VWS V14.00,2013-06-15 15:10:00,
2013-06-15 08:15:00,57.7,25.3,30.03,North,9,0.0,0.0,28,0.00,,---,0.00,VWS V14.00,2013-06-15 15:15:00,
2013-06-15 08:20:00,58.6,26.0,30.03,North,9,0.0,0.0,28,0.00,,---,0.00,VWS V14.00,2013-06-15 15:20:00,
2013-06-15 08:25:00,59.1,26.5,30.03,North,9,0.0,0.0,28,0.00,,---,0.00,VWS V14.00,2013-06-15 15:25:00,
2013-06-15 08:35:00,59.8,27.1,30.03,North,9,0.0,0.0,28,0.00,,---,0.00,VWS V14.00,2013-06-15 15:35:00,
2013-06-15 08:40:00,59.9,27.2,30.03,North,9,0.0,0.0,28,0.00,,---,0.00,VWS V14.00,2013-06-15 15:40:00,
2013-06-15 08:45:00,60.1,27.3,30.03,North,9,0.0,0.0,28,0.00,,---,0.00,VWS V14.00,2013-06-15 15:45:00,
2013-06-15 08:50:00,60.3,27.5,30.03,North,9,0.0,0.0,28,0.00,,---,0.00,VWS V14.00,2013-06-15 15:50:00,
2013-06-15 08:55:00,60.7,27.9,30.03,North,9,0.0,0.0,28,0.00,,---,0.00,VWS V14.00,2013-06-15 15:55:00,
2013-06-15 09:00:00,61.0,28.1,30.03,North,9,0.0,0.0,28,0.00,,---,0.00,VWS V14.00,2013-06-15 16:00:00,
2013-06-15 09:05:00,61.3,28.4,30.03,North,9,0.0,0.0,28,0.00,,---,0.00,VWS V14.00,2013-06-15 16:05:00,
2013-06-15 09:10:00,61.8,28.8,30.03,North,9,0.0,1.0,28,0.00,,---,0.00,VWS V14.00,2013-06-15 16:10:00,
2013-06-15 09:15:00,62.1,29.9,30.03,North,9,0.0,0.0,30,0.00,,---,0.00,VWS V14.00,2013-06-15 16:15:00,
2013-06-15 09:25:00,63.3,29.2,30.03,North,9,0.0,0.0,28,0.00,,---,0.00,VWS V14.00,2013-06-15 16:25:00,
2013-06-15 09:35:00,64.1,29.9,30.03,North,9,0.0,2.0,28,0.00,,---,0.00,VWS V14.00,2013-06-15 16:35:00,
2013-06-15 09:40:00,64.5,28.4,30.03,North,9,0.0,0.0,26,0.00,,---,0.00,VWS V14.00,2013-06-15 16:40:00,
2013-06-15 09:45:00,65.1,28.9,30.03,North,9,0.0,2.0,26,0.00,,---,0.00,VWS V14.00,2013-06-15 16:45:00,
2013-06-15 09:55:00,65.9,29.6,30.03,North,9,0.0,4.0,26,0.00,,---,0.00,VWS V14.00,2013-06-15 16:55:00,
2013-06-15 10:00:00,66.6,30.2,30.02,North,9,0.0,2.0,26,0.00,,---,0.00,VWS V14.00,2013-06-15 17:00:00,
2013-06-15 10:05:00,66.9,29.5,30.02,North,9,0.0,7.0,24,0.00,,---,0.00,VWS V14.00,2013-06-15 17:05:00,
2013-06-15 10:15:00,67.4,28.9,30.02,North,9,0.0,6.0,24,0.00,,---,0.00,VWS V14.00,2013-06-15 17:15:00,
2013-06-15 10:20:00,67.7,28.1,30.02,North,9,0.0,6.0,22,0.00,,---,0.00,VWS V14.00,2013-06-15 17:20:00,
2013-06-15 10:25:00,68.0,29.4,30.02,North,9,2.0,2.0,24,0.00,,---,0.00,VWS V14.00,2013-06-15 17:25:00,
2013-06-15 10:30:00,68.4,28.6,30.02,North,9,4.0,7.0,22,0.00,,---,0.00,VWS V14.00,2013-06-15 17:30:00,
2013-06-15 10:35:00,68.8,29.0,30.02,North,9,0.0,9.0,22,0.00,,---,0.00,VWS V14.00,2013-06-15 17:35:00,
2013-06-15 10:40:00,69.4,29.5,30.02,North,9,0.0,9.0,22,0.00,,---,0.00,VWS V14.00,2013-06-15 17:40:00,
2013-06-15 10:45:00,69.2,29.3,30.02,North,9,0.0,8.0,22,0.00,,---,0.00,VWS V14.00,2013-06-15 17:45:00,
2013-06-15 10:50:00,70.0,31.1,30.02,North,9,0.0,6.0,24,0.00,,---,0.00,VWS V14.00,2013-06-15 17:50:00,
2013-06-15 10:55:00,70.6,29.4,30.02,North,9,4.0,9.0,22,0.00,,---,0.00,VWS V14.00,2013-06-15 17:55:00,
2013-06-15 11:00:00,71.3,30.0,30.01,North,9,6.0,6.0,22,0.00,,---,0.00,VWS V14.00,2013-06-15 18:00:00,
2013-06-15 11:05:00,71.1,28.6,30.02,North,9,0.0,9.0,20,0.00,,---,0.00,VWS V14.00,2013-06-15 18:05:00,
2013-06-15 11:15:00,71.5,27.7,30.02,North,360,9.0,12.0,20,0.00,,---,0.00,VWS V14.00,2013-06-15 18:15:00,
2013-06-15 11:20:00,71.2,27.5,30.01,North,360,0.0,10.0,20,0.00,,---,0.00,VWS V14.00,2013-06-15 18:20:00,
2013-06-15 11:25:00,71.7,26.6,30.01,North,360,0.0,3.0,18,0.00,,---,0.00,VWS V14.00,2013-06-15 18:25:00,
2013-06-15 11:30:00,72.7,27.5,30.01,North,360,0.0,0.0,18,0.00,,---,0.00,VWS V14.00,2013-06-15 18:30:00,
2013-06-15 11:35:00,73.3,27.9,30.01,North,355,6.0,11.0,18,0.00,,---,0.00,VWS V14.00,2013-06-15 18:35:00,
2013-06-15 11:40:00,73.3,27.9,30.01,North,355,0.0,10.0,18,0.00,,---,0.00,VWS V14.00,2013-06-15 18:40:00,
2013-06-15 11:50:00,73.6,26.8,30.01,NNW,342,0.0,10.0,18,0.00,,---,0.00,VWS V14.00,2013-06-15 18:50:00,
2013-06-15 11:55:00,74.3,26.0,30.01,NNW,341,0.0,6.0,16,0.00,,---,0.00,VWS V14.00,2013-06-15 18:55:00,
2013-06-15 12:00:00,75.0,26.5,30.01,NNW,341,0.0,8.0,16,0.00,,---,0.00,VWS V14.00,2013-06-15 19:00:00,
2013-06-15 12:05:00,74.6,26.2,30.01,NNW,341,7.0,11.0,16,0.00,,---,0.00,VWS V14.00,2013-06-15 19:05:00,
2013-06-15 12:10:00,75.3,26.8,30.01,NNW,342,6.0,12.0,16,0.00,,---,0.00,VWS V14.00,2013-06-15 19:10:00,
2013-06-15 12:15:00,75.4,26.9,30.01,NNW,342,0.0,10.0,16,0.00,,---,0.00,VWS V14.00,2013-06-15 19:15:00,
2013-06-15 12:20:00,75.0,26.5,30.01,NNW,341,0.0,10.0,16,0.00,,---,0.00,VWS V14.00,2013-06-15 19:20:00,
2013-06-15 12:25:00,75.8,27.2,30.00,NNW,336,10.0,12.0,16,0.00,,---,0.00,VWS V14.00,2013-06-15 19:25:00,
2013-06-15 12:35:00,76.0,25.8,30.00,NNW,332,0.0,11.0,16,0.00,,---,0.00,VWS V14.00,2013-06-15 19:35:00,
2013-06-15 12:40:00,76.2,26.0,30.00,NW,318,2.0,13.0,16,0.00,,---,0.00,VWS V14.00,2013-06-15 19:40:00,
2013-06-15 12:45:00,76.8,26.5,30.00,NW,318,7.0,13.0,16,0.00,,---,0.00,VWS V14.00,2013-06-15 19:45:00,
2013-06-15 12:50:00,76.5,26.2,30.00,NW,318,12.0,13.0,16,0.00,,---,0.00,VWS V14.00,2013-06-15 19:50:00,
2013-06-15 12:55:00,76.4,26.2,30.00,NW,310,10.0,15.0,16,0.00,,---,0.00,VWS V14.00,2013-06-15 19:55:00,
2013-06-15 13:00:00,76.7,26.4,30.00,NW,310,11.0,12.0,16,0.00,,---,0.00,VWS V14.00,2013-06-15 20:00:00,
2013-06-15 13:05:00,76.9,28.1,30.00,NW,306,11.0,18.0,16,0.00,,---,0.00,VWS V14.00,2013-06-15 20:05:00,
2013-06-15 13:10:00,76.7,27.9,30.00,NW,306,7.0,13.0,16,0.00,,---,0.00,VWS V14.00,2013-06-15 20:10:00,
2013-06-15 13:15:00,76.9,26.6,30.00,WNW,302,8.0,19.0,16,0.00,,---,0.00,VWS V14.00,2013-06-15 20:15:00,
2013-06-15 13:25:00,76.7,27.9,30.00,WNW,302,5.0,14.0,16,0.00,,---,0.00,VWS V14.00,2013-06-15 20:25:00,
2013-06-15 13:30:00,78.4,29.3,30.00,WNW,302,13.0,14.0,16,0.00,,---,0.00,VWS V14.00,2013-06-15 20:30:00,
2013-06-15 13:40:00,78.4,27.8,30.00,WNW,302,9.0,16.0,16,0.00,,---,0.00,VWS V14.00,2013-06-15 20:40:00,
2013-06-15 13:45:00,78.2,27.6,29.99,NW,313,10.0,19.0,16,0.00,,---,0.00,VWS V14.00,2013-06-15 20:45:00,
2013-06-15 13:50:00,78.2,26.0,30.00,WNW,284,9.0,18.0,14,0.00,,---,0.00,VWS V14.00,2013-06-15 20:50:00,
2013-06-15 13:55:00,78.6,26.3,29.99,WNW,283,10.0,15.0,14,0.00,,---,0.00,VWS V14.00,2013-06-15 20:55:00,
2013-06-15 14:00:00,78.7,28.0,29.99,WNW,284,13.0,14.0,16,0.00,,---,0.00,VWS V14.00,2013-06-15 21:00:00,
2013-06-15 14:05:00,78.5,26.2,29.99,WNW,294,16.0,22.0,14,0.00,,---,0.00,VWS V14.00,2013-06-15 21:05:00,
2013-06-15 14:10:00,78.0,25.8,29.99,WNW,294,12.0,18.0,14,0.00,,---,0.00,VWS V14.00,2013-06-15 21:10:00,
2013-06-15 14:15:00,77.8,25.7,29.99,WNW,288,6.0,16.0,14,0.00,,---,0.00,VWS V14.00,2013-06-15 21:15:00,
2013-06-15 14:20:00,78.7,26.4,29.99,WNW,288,6.0,14.0,14,0.00,,---,0.00,VWS V14.00,2013-06-15 21:20:00,
2013-06-15 14:25:00,78.8,22.9,29.99,WNW,289,14.0,18.0,12,0.00,,---,0.00,VWS V14.00,2013-06-15 21:25:00,
2013-06-15 14:30:00,78.7,26.4,29.99,WNW,288,10.0,14.0,14,0.00,,---,0.00,VWS V14.00,2013-06-15 21:30:00,
2013-06-15 14:35:00,79.0,28.2,29.98,WNW,297,11.0,19.0,16,0.00,,---,0.00,VWS V14.00,2013-06-15 21:35:00,
2013-06-15 14:40:00,78.7,28.0,29.98,WNW,298,14.0,21.0,16,0.00,,---,0.00,VWS V14.00,2013-06-15 21:40:00,
2013-06-15 14:45:00,79.0,28.2,29.98,WNW,291,15.0,19.0,16,0.00,,---,0.00,VWS V14.00,2013-06-15 21:45:00,
2013-06-15 14:50:00,78.9,28.2,29.98,West,279,13.0,20.0,16,0.00,,---,0.00,VWS V14.00,2013-06-15 21:50:00,
2013-06-15 14:55:00,78.7,29.5,29.98,West,279,5.0,16.0,16,0.00,,---,0.00,VWS V14.00,2013-06-15 21:55:00,
2013-06-15 15:00:00,79.3,30.0,29.98,West,275,9.0,19.0,16,0.00,,---,0.00,VWS V14.00,2013-06-15 22:00:00,
2013-06-15 15:05:00,79.1,31.3,29.98,WNW,290,19.0,20.0,18,0.00,,---,0.00,VWS V14.00,2013-06-15 22:05:00,
2013-06-15 15:10:00,79.1,28.3,29.98,WNW,287,12.0,21.0,16,0.00,,---,0.00,VWS V14.00,2013-06-15 22:10:00,
2013-06-15 15:15:00,78.7,29.5,29.98,WNW,286,12.0,22.0,16,0.00,,---,0.00,VWS V14.00,2013-06-15 22:15:00,
2013-06-15 15:20:00,78.4,29.3,29.98,West,273,12.0,19.0,16,0.00,,---,0.00,VWS V14.00,2013-06-15 22:20:00,
2013-06-15 15:25:00,78.4,29.3,29.98,West,267,9.0,21.0,16,0.00,,---,0.00,VWS V14.00,2013-06-15 22:25:00,
2013-06-15 15:30:00,78.3,29.2,29.98,West,271,6.0,20.0,16,0.00,,---,0.00,VWS V14.00,2013-06-15 22:30:00,
2013-06-15 15:35:00,78.4,29.3,29.98,West,270,11.0,19.0,16,0.00,,---,0.00,VWS V14.00,2013-06-15 22:35:00,
2013-06-15 15:40:00,78.7,31.0,29.98,WNW,293,11.0,22.0,18,0.00,,---,0.00,VWS V14.00,2013-06-15 22:40:00,
2013-06-15 15:45:00,78.7,29.5,29.98,WNW,290,14.0,21.0,16,0.00,,---,0.00,VWS V14.00,2013-06-15 22:45:00,
2013-06-15 15:50:00,78.5,29.4,29.98,West,265,14.0,24.0,16,0.00,,---,0.00,VWS V14.00,2013-06-15 22:50:00,
2013-06-15 15:55:00,78.4,29.3,29.98,West,277,12.0,21.0,16,0.00,,---,0.00,VWS V14.00,2013-06-15 22:55:00,
2013-06-15 16:05:00,79.0,29.8,29.98,WNW,284,11.0,23.0,16,0.00,,---,0.00,VWS V14.00,2013-06-15 23:05:00,
2013-06-15 16:10:00,79.3,31.5,29.98,WNW,292,11.0,21.0,18,0.00,,---,0.00,VWS V14.00,2013-06-15 23:10:00,
2013-06-15 16:15:00,79.6,31.7,29.98,NW,306,20.0,25.0,18,0.00,,---,0.00,VWS V14.00,2013-06-15 23:15:00,
2013-06-15 16:20:00,78.7,31.0,29.98,WNW,286,14.0,26.0,18,0.00,,---,0.00,VWS V14.00,2013-06-15 23:20:00,
2013-06-15 16:25:00,78.5,30.8,29.98,WNW,286,19.0,22.0,18,0.00,,---,0.00,VWS V14.00,2013-06-15 23:25:00,
2013-06-15 16:30:00,78.3,30.6,29.98,West,259,13.0,28.0,18,0.00,,---,0.00,VWS V14.00,2013-06-15 23:30:00,
2013-06-15 16:35:00,78.2,32.0,29.98,WNW,283,15.0,21.0,18,0.00,,---,0.00,VWS V14.00,2013-06-15 23:35:00,
2013-06-15 16:40:00,78.6,32.3,29.98,WNW,287,19.0,23.0,18,0.00,,---,0.00,VWS V14.00,2013-06-15 23:40:00,
2013-06-15 16:45:00,78.0,31.8,29.98,West,273,14.0,23.0,18,0.00,,---,0.00,VWS V14.00,2013-06-15 23:45:00,
2013-06-15 16:50:00,77.4,32.6,29.98,West,269,11.0,23.0,20,0.00,,---,0.00,VWS V14.00,2013-06-15 23:50:00,
2013-06-15 16:55:00,77.9,31.7,29.98,WNW,288,15.0,23.0,18,0.00,,---,0.00,VWS V14.00,2013-06-15 23:55:00,
2013-06-15 17:00:00,78.1,31.9,29.98,WNW,294,25.0,25.0,18,0.00,,---,0.00,VWS V14.00,2013-06-16 00:00:00,
2013-06-15 17:05:00,77.9,31.7,29.98,West,281,20.0,25.0,18,0.00,,---,0.00,VWS V14.00,2013-06-16 00:05:00,
2013-06-15 17:10:00,77.3,32.5,29.98,West,263,12.0,21.0,20,0.00,,---,0.00,VWS V14.00,2013-06-16 00:10:00,
2013-06-15 17:20:00,77.4,32.6,29.98,WNW,302,15.0,23.0,20,0.00,,---,0.00,VWS V14.00,2013-06-16 00:20:00,
2013-06-15 17:25:00,77.5,32.7,29.98,West,272,19.0,23.0,20,0.00,,---,0.00,VWS V14.00,2013-06-16 00:25:00,
2013-06-15 17:30:00,77.0,32.3,29.98,West,280,23.0,25.0,20,0.00,,---,0.00,VWS V14.00,2013-06-16 00:30:00,
2013-06-15 17:35:00,76.8,32.1,29.98,NW,311,20.0,27.0,20,0.00,,---,0.00,VWS V14.00,2013-06-16 00:35:00,
2013-06-15 17:40:00,77.1,32.3,29.98,West,270,16.0,23.0,20,0.00,,---,0.00,VWS V14.00,2013-06-16 00:40:00,
2013-06-15 17:50:00,76.2,32.8,29.98,WNW,293,18.0,25.0,20,0.00,,---,0.00,VWS V14.00,2013-06-16 00:50:00,
2013-06-15 17:55:00,75.7,33.6,29.98,West,280,23.0,26.0,22,0.00,,---,0.00,VWS V14.00,2013-06-16 00:55:00,
2013-06-15 18:00:00,75.9,32.6,29.98,WNW,298,18.0,27.0,20,0.00,,---,0.00,VWS V14.00,2013-06-16 01:00:00,
2013-06-15 18:05:00,76.0,32.7,29.98,West,276,16.0,26.0,20,0.00,,---,0.00,VWS V14.00,2013-06-16 01:05:00,
2013-06-15 18:15:00,75.7,32.4,29.99,West,276,9.0,24.0,20,0.00,,---,0.00,VWS V14.00,2013-06-16 01:15:00,
2013-06-15 18:20:00,75.5,32.3,29.98,WNW,293,14.0,21.0,20,0.00,,---,0.00,VWS V14.00,2013-06-16 01:20:00,
2013-06-15 18:25:00,75.5,33.5,29.98,West,265,19.0,23.0,22,0.00,,---,0.00,VWS V14.00,2013-06-16 01:25:00,
2013-06-15 18:30:00,75.2,33.2,29.99,WNW,297,13.0,22.0,22,0.00,,---,0.00,VWS V14.00,2013-06-16 01:30:00,
2013-06-15 18:35:00,75.1,33.1,29.99,West,275,8.0,19.0,22,0.00,,---,0.00,VWS V14.00,2013-06-16 01:35:00,
2013-06-15 18:40:00,75.3,33.3,29.99,WNW,284,16.0,19.0,22,0.00,,---,0.00,VWS V14.00,2013-06-16 01:40:00,
2013-06-15 18:45:00,74.9,34.1,29.99,West,271,14.0,19.0,22,0.00,,---,0.00,VWS V14.00,2013-06-16 01:45:00,
2013-06-15 18:55:00,73.9,33.3,29.99,WNW,288,13.0,21.0,22,0.00,,---,0.00,VWS V14.00,2013-06-16 01:55:00,
2013-06-15 19:00:00,73.9,33.3,30.00,WNW,287,12.0,18.0,22,0.00,,---,0.00,VWS V14.00,2013-06-16 02:00:00,
2013-06-15 19:05:00,73.6,34.1,30.00,WNW,285,14.0,20.0,24,0.00,,---,0.00,VWS V14.00,2013-06-16 02:05:00,
2013-06-15 19:15:00,72.5,34.2,30.00,WNW,286,12.0,20.0,24,0.00,,---,0.00,VWS V14.00,2013-06-16 02:15:00,
2013-06-15 19:20:00,72.4,34.1,30.01,West,259,13.0,20.0,24,0.00,,---,0.00,VWS V14.00,2013-06-16 02:20:00,
2013-06-15 19:25:00,72.1,34.9,30.01,West,266,11.0,18.0,26,0.00,,---,0.00,VWS V14.00,2013-06-16 02:25:00,
2013-06-15 19:30:00,72.0,34.8,30.01,West,266,12.0,15.0,26,0.00,,---,0.00,VWS V14.00,2013-06-16 02:30:00,
2013-06-15 19:40:00,71.3,34.2,30.01,West,260,18.0,19.0,26,0.00,,---,0.00,VWS V14.00,2013-06-16 02:40:00,
2013-06-15 19:50:00,70.4,33.4,30.02,West,263,15.0,20.0,26,0.00,,---,0.00,VWS V14.00,2013-06-16 02:50:00,
2013-06-15 19:55:00,69.9,34.0,30.02,West,271,8.0,20.0,26,0.00,,---,0.00,VWS V14.00,2013-06-16 02:55:00,
2013-06-15 20:00:00,69.7,33.8,30.02,West,263,9.0,12.0,26,0.00,,---,0.00,VWS V14.00,2013-06-16 03:00:00,
2013-06-15 20:10:00,68.9,33.1,30.02,West,279,7.0,13.0,26,0.00,,---,0.00,VWS V14.00,2013-06-16 03:10:00,
2013-06-15 20:20:00,67.9,33.2,30.02,West,277,0.0,6.0,28,0.00,,---,0.00,VWS V14.00,2013-06-16 03:20:00,
2013-06-15 20:30:00,66.6,33.0,30.03,West,277,0.0,0.0,28,0.00,,---,0.00,VWS V14.00,2013-06-16 03:30:00,
2013-06-15 20:35:00,66.1,33.4,30.03,West,277,0.0,0.0,30,0.00,,---,0.00,VWS V14.00,2013-06-16 03:35:00,
2013-06-15 20:40:00,65.9,33.2,30.03,West,278,0.0,0.0,30,0.00,,---,0.00,VWS V14.00,2013-06-16 03:40:00,
2013-06-15 20:50:00,65.4,33.6,30.03,West,278,2.0,7.0,30,0.00,,---,0.00,VWS V14.00,2013-06-16 03:50:00,
2013-06-15 20:55:00,65.2,33.4,30.04,West,279,6.0,8.0,30,0.00,,---,0.00,VWS V14.00,2013-06-16 03:55:00,
2013-06-15 21:00:00,65.1,33.3,30.04,West,279,1.0,8.0,30,0.00,,---,0.00,VWS V14.00,2013-06-16 04:00:00,
2013-06-15 21:05:00,64.9,33.2,30.04,WNW,284,7.0,13.0,30,0.00,,---,0.00,VWS V14.00,2013-06-16 04:05:00,
2013-06-15 21:10:00,64.6,32.9,30.04,WNW,286,8.0,10.0,30,0.00,,---,0.00,VWS V14.00,2013-06-16 04:10:00,
2013-06-15 21:15:00,64.6,32.9,30.05,West,275,5.0,14.0,30,0.00,,---,0.00,VWS V14.00,2013-06-16 04:15:00,
2013-06-15 21:25:00,64.2,32.6,30.05,West,275,2.0,8.0,30,0.00,,---,0.00,VWS V14.00,2013-06-16 04:25:00,
2013-06-15 21:30:00,64.1,32.5,30.05,West,275,3.0,6.0,30,0.00,,---,0.00,VWS V14.00,2013-06-16 04:30:00,
2013-06-15 21:40:00,63.7,32.1,30.06,West,275,4.0,6.0,30,0.00,,---,0.00,VWS V14.00,2013-06-16 04:40:00,
2013-06-15 21:45:00,63.6,32.0,30.06,West,275,4.0,5.0,30,0.00,,---,0.00,VWS V14.00,2013-06-16 04:45:00,
2013-06-15 21:50:00,63.4,31.9,30.06,West,275,5.0,5.0,30,0.00,,---,0.00,VWS V14.00,2013-06-16 04:50:00,
2013-06-15 21:55:00,63.2,31.7,30.06,West,275,3.0,8.0,30,0.00,,---,0.00,VWS V14.00,2013-06-16 04:55:00,
2013-06-15 22:00:00,62.9,32.2,30.06,West,275,2.0,4.0,32,0.00,,---,0.00,VWS V14.00,2013-06-16 05:00:00,
2013-06-15 22:10:00,62.3,32.5,30.07,West,275,2.0,6.0,32,0.00,,---,0.00,VWS V14.00,2013-06-16 05:10:00,
2013-06-15 22:15:00,62.1,32.3,30.07,West,275,4.0,5.0,32,0.00,,---,0.00,VWS V14.00,2013-06-16 05:15:00,
2013-06-15 22:20:00,62.0,33.0,30.07,West,275,1.0,4.0,34,0.00,,---,0.00,VWS V14.00,2013-06-16 05:20:00,
2013-06-15 22:25:00,61.8,32.8,30.07,West,275,5.0,6.0,34,0.00,,---,0.00,VWS V14.00,2013-06-16 05:25:00,
2013-06-15 22:35:00,59.0,31.8,30.07,West,275,0.0,5.0,36,0.00,,---,0.00,VWS V14.00,2013-06-16 05:35:00,
2013-06-15 22:40:00,58.4,31.2,30.07,West,275,0.0,0.0,36,0.00,,---,0.00,VWS V14.00,2013-06-16 05:40:00,
2013-06-15 22:45:00,58.0,31.6,30.08,West,275,0.0,0.0,36,0.00,,---,0.00,VWS V14.00,2013-06-16 05:45:00,
2013-06-15 22:50:00,58.1,31.6,30.08,West,275,0.0,0.0,36,0.00,,---,0.00,VWS V14.00,2013-06-16 05:50:00,
2013-06-15 22:55:00,58.2,31.7,30.07,West,275,0.0,0.0,36,0.00,,---,0.00,VWS V14.00,2013-06-16 05:55:00,
2013-06-15 23:00:00,58.3,31.1,30.07,West,275,0.0,0.0,36,0.00,,---,0.00,VWS V14.00,2013-06-16 06:00:00,
2013-06-15 23:05:00,58.1,30.3,30.07,West,275,0.0,0.0,34,0.00,,---,0.00,VWS V14.00,2013-06-16 06:05:00,
2013-06-15 23:15:00,57.3,30.2,30.08,West,275,0.0,0.0,36,0.00,,---,0.00,VWS V14.00,2013-06-16 06:15:00,
2013-06-15 23:25:00,57.8,31.4,30.08,West,275,0.0,0.0,36,0.00,,---,0.00,VWS V14.00,2013-06-16 06:25:00,
2013-06-15 23:30:00,57.7,30.6,30.07,West,275,0.0,0.0,36,0.00,,---,0.00,VWS V14.00,2013-06-16 06:30:00,
2013-06-15 23:40:00,56.3,29.4,30.08,West,275,0.0,0.0,36,0.00,,---,0.00,VWS V14.00,2013-06-16 06:40:00,
2013-06-15 23:45:00,55.2,29.1,30.08,West,275,0.0,0.0,36,0.00,,---,0.00,VWS V14.00,2013-06-16 06:45:00,
2013-06-15 23:55:00,57.1,30.8,30.08,West,275,0.0,0.0,36,0.00,,---,0.00,VWS V14.00,2013-06-16 06:55:00,